Temperature
11 12 12 12 13 13 13 13 14 14 14 14 14 14 14 14 14 14 14 14 14 14 14 14 14 14 14 14 14 14 14 14 15 15 14 14 14 14 14 14 14 14 14
11 12 12 12 12 12 13 13 13 14 14 14 14 14 14 14 14 14 14 14 14 14 14 14 14 14 14 14 14 14 14 14 14 14 14 14 14 14 14 14 14 14 14
11 12 12 12 12 12 12 13 13 13 14 14 14 14 14 14 14 14 14 14 14 14 14 14 14 14 14 14 14 14 14 14 14 14 14 14 14 14 14 14 14 14 14
11 11 11 11 12 12 12 12 13 13 13 13 13 14 14 14 14 14 14 14 14 14 14 14 14 14 14 14 14 14 14 14 14 14 14 14 13 14 14 14 14 14 14
11 11 11 11 11 12 12 12 12 12 13 13 13 13 13 13 13 13 13 13 14 13 13 13 13 13 13 13 13 14 14 14 14 14 13 13 13 13 13 14 13 14 14
11 11 11 11 11 11 12 12 12 12 12 13 13 13 13 13 13 13 13 13 13 13 13 13 13 13 13 13 13 13 13 13 13 13 13 13 13 13 13 13 13 13 13
11 11 11 11 11 11 11 12 12 12 12 12 12 13 13 13 13 13 13 13 13 13 13 13 13 13 13 13 13 13 13 13 13 13 13 13 13 13 13 13 13 13 13
10 10 11 11 11 11 11 12 12 12 12 12 12 12 12 12 13 13 13 12 13 12 12 12 13 13 13 13 13 13 13 13 13 13 13 13 13 13 13 13 13 13 13
10 10 10 11 11 11 11 11 12 12 12 12 12 12 12 12 12 12 12 12 12 12 12 12 12 12 12 12 12 12 12 12 13 13 13 13 13 13 13 13 13 13 13
9 10 10 10 10 11 11 11 11 11 11 11 12 12 12 12 12 12 12 12 12 12 12 12 12 12 12 12 12 12 12 12 12 12 12 12 12 13 12 13 12 12 12
9 9 9 10 10 10 10 11 11 11 11 11 11 11 11 11 11 12 12 12 12 11 11 12 12 12 12 12 12 12 12 12 12 12 12 12 12 12 12 12 12 12 12
9 9 9 9 9 10 10 10 10 10 11 11 11 11 11 11 11 11 11 11 11 11 11 11 11 11 11 11 11 11 11 11 12 12 12 12 12 12 12 12 12 12 12
8 8 8 8 9 9 9 10 10 10 10 10 10 10 10 10 10 11 11 11 11 11 11 11 11 11 11 11 11 11 11 11 11 11 11 11 12 12 12 12 11 11 11
7 8 8 8 8 9 9 9 9 9 9 10 10 10 10 10 10 10 10 10 10 10 10 10 10 10 10 10 11 11 11 11 11 11 11 11 11 11 11 11 11 11 11
7 7 8 8 8 8 8 9 9 9 9 9 9 9 9 10 10 10 10 10 10 10 10 10 10 10 10 10 10 10 10 10 10 10 11 11 11 11 11 11 11 11 11
7 7 7 7 7 8 8 8 8 8 8 8 9 9 9 9 9 9 9 9 9 9 9 9 9 9 9 9 10 10 10 10 10 10 10 10 10 10 11 10 10 10 10
7 7 7 7 7 7 7 8 8 8 8 8 8 8 8 8 8 9 9 9 9 9 9 9 9 9 9 9 9 9 9 9 9 10 10 10 10 10 10 10 10 10 10
6 6 6 6 7 7 7 7 7 7 7 8 8 8 8 8 8 8 8 8 8 8 8 8 8 8 8 8 9 9 9 9 9 9 9 9 9 9 10 10 10 10 10
5 6 6 6 6 6 6 7 7 7 7 7 7 7 7 7 7 7 7 8 8 8 8 8 8 8 8 8 8 8 8 9 9 9 9 9 9 9 9 9 9 9 9
5 5 5 5 6 6 6 6 6 6 6 7 7 7 7 7 7 7 7 7 7 7 7 7 7 7 7 7 8 8 8 8 8 8 8 8 8 9 9 9 9 9 9
4 4 5 5 5 5 5 6 6 6 6 6 6 6 6 6 6 6 6 7 7 7 7 7 7 7 7 7 7 7 8 8 8 8 8 8 8 8 8 8 8 8 9
4 4 4 4 4 5 5 5 5 5 6 6 6 6 6 6 6 6 6 6 6 6 6 6 6 6 6 6 6 6 6 7 7 7 7 7 7 7 8 8 8 8 8
4 4 4 4 4 4 4 4 4 5 5 5 5 5 5 5 5 5 5 5 5 6 6 6 6 6 6 6 5 5 5 6 6 6 6 7 7 7 7 7 7 7 8
3 3 3 3 3 3 4 4 4 4 4 5 5 5 5 4 4 5 5 5 5 5 5 5 5 5 5 5 5 5 5 5 5 5 5 6 6 6 7 7 7 7 7
3 3 3 3 3 3 3 3 3 3 4 4 4 4 4 4 4 4 4 4 4 4 4 4 4 4 4 4 4 4 4 4 5 4 5 5 5 6 6 6 6 6 6
3 3 3 3 3 2 2 3 3 3 3 3 3 3 3 3 3 3 3 3 4 4 4 4 4 4 4 4 4 3 4 4 4 4 4 5 5 5 5 5 6 6 6
Wind_Speed
1 3 2 4 5 7 8 9 9 10 11 11 11 12 12 12 12 13 13 13 13 13 14 15 15 15 16 16 16 16 15 15 16 15 15 15 15 15 15 15 14 13 15
1 1 2 4 6 7 8 8 9 10 10 10 10 11 11 11 11 12 12 12 12 13 13 14 14 15 15 15 15 15 14 14 14 14 14 13 13 14 14 14 14 13 14
2 2 2 5 6 7 8 8 8 9 9 9 10 10 10 10 11 11 12 12 12 12 12 13 13 14 14 13 14 14 14 13 13 13 12 11 11 13 13 14 14 14 14
3 3 3 5 7 7 8 8 8 8 9 9 9 9 10 10 10 11 11 12 12 12 12 12 12 13 13 12 12 13 13 13 13 11 10 10 9 11 12 13 14 14 14
5 4 4 6 7 7 8 8 9 8 8 8 9 9 9 9 10 10 10 10 10 11 11 11 11 11 11 11 11 12 12 12 12 11 10 9 9 10 11 12 13 13 13
6 6 5 6 6 7 7 8 8 8 8 9 8 8 8 9 9 9 9 9 9 10 10 10 10 10 10 10 11 11 12 12 11 10 9 9 8 9 10 11 11 12 12
5 6 6 7 7 7 7 7 8 8 8 9 8 8 8 8 8 8 8 8 9 9 9 9 9 9 9 9 10 11 11 11 10 9 8 8 8 9 9 10 10 11 11
5 6 6 6 7 7 7 6 7 7 8 8 8 8 7 7 7 7 7 7 8 8 8 8 8 8 8 9 9 10 10 9 9 8 7 7 8 8 8 9 9 9 10
6 6 6 6 6 6 6 7 6 7 7 7 7 8 7 7 7 6 6 6 6 7 7 7 7 8 8 8 9 9 9 9 8 7 6 6 7 8 8 8 9 9 9
5 5 5 6 6 5 5 6 7 6 6 7 7 7 7 7 6 6 5 5 5 6 6 6 6 7 8 8 8 8 9 9 8 7 6 5 6 7 6 7 7 8 8
4 4 5 5 6 5 4 5 6 6 5 6 6 6 6 5 5 5 5 5 5 5 5 5 5 6 7 8 8 8 8 7 7 6 5 5 5 5 5 5 6 7 7
2 2 3 4 4 5 4 4 4 4 5 4 4 5 5 5 5 5 5 5 4 4 4 4 5 5 6 6 6 7 6 6 6 5 5 4 5 5 4 4 5 6 6
0 2 2 3 3 3 4 3 3 3 3 3 3 3 4 4 4 4 4 4 4 4 4 4 4 5 5 4 4 4 5 5 5 4 4 4 3 3 3 4 4 4 5
0 1 1 2 2 2 2 2 2 2 2 2 2 2 2 2 3 3 3 3 3 3 3 3 3 4 4 3 3 3 3 3 3 3 2 3 3 2 2 3 3 4 4
1 1 1 1 1 1 1 1 1 1 0 1 1 1 2 2 1 1 1 2 2 2 2 2 2 2 3 2 2 2 2 2 2 2 1 1 1 2 1 2 2 3 3
1 1 1 1 1 1 0 0 1 1 1 1 0 0 2 2 2 1 1 1 1 1 1 1 1 1 1 1 1 1 1 1 2 1 1 0 0 0 0 2 2 2 2
2 1 1 2 1 0 1 1 1 2 2 1 1 2 2 3 3 2 1 0 0 0 1 1 1 1 1 1 1 1 1 1 2 2 2 2 1 1 1 1 2 2 1
2 2 2 2 1 1 1 1 1 2 2 1 1 2 2 3 3 3 1 1 1 1 1 1 0 0 1 1 1 1 1 2 3 3 3 2 2 2 2 2 2 2 2
3 3 2 2 2 2 2 1 1 2 2 2 2 2 2 2 4 3 2 2 2 1 0 1 1 1 1 1 2 2 1 2 3 3 3 3 3 3 2 2 2 2 2
3 2 2 2 2 2 1 1 1 2 2 2 2 2 3 2 3 3 2 2 2 1 1 1 1 1 1 1 2 2 2 3 2 2 3 3 4 4 3 3 2 2 2
2 2 2 1 2 1 1 1 1 2 2 1 2 2 2 2 2 3 2 2 2 2 3 2 1 1 1 1 0 1 2 2 2 2 2 2 2 4 3 3 3 2 3
3 3 2 2 2 2 2 2 1 2 2 2 2 2 2 3 3 2 3 3 3 2 2 2 1 1 1 0 1 0 1 2 2 2 2 2 2 2 2 3 3 3 4
3 3 3 2 1 1 1 0 1 1 1 1 2 2 3 3 4 3 3 3 3 3 4 3 3 2 2 1 1 1 1 3 2 2 3 2 2 1 2 3 4 5 5
4 3 2 2 1 1 1 1 2 1 2 3 2 3 4 4 4 4 3 3 3 3 4 4 3 3 3 3 2 2 2 2 2 2 2 2 3 3 3 3 5 6 7
3 2 2 2 1 1 1 2 2 2 3 2 2 3 4 4 4 4 4 3 3 3 4 4 3 3 3 3 3 2 2 2 2 3 4 3 3 3 4 4 5 5 7
2 1 1 1 2 1 1 1 2 3 3 3 3 3 3 3 3 4 4 4 4 4 4 4 4 4 4 4 3 3 3 2 2 2 3 4 5 4 4 4 4 5 7
Wind_Direction
290 322 7 31 54 55 55 58 63 63 68 71 71 70 69 68 68 70 71 69 69 71 73 74 73 72 72 72 71 72 72 69 68 68 68 70 74 75 76 74 75 74 78
239 330 36 58 64 61 59 59 64 65 66 70 72 71 71 71 69 70 71 71 71 73 75 77 75 73 71 69 70 71 71 68 68 67 65 67 73 78 79 79 80 81 80
65 65 65 72 67 64 61 59 65 67 69 72 76 76 73 73 71 71 72 72 73 73 75 78 76 74 71 68 69 69 68 66 69 67 63 64 71 78 79 80 81 81 82
75 78 69 75 70 65 61 58 64 68 70 73 80 80 77 76 75 74 73 72 72 74 75 77 77 74 71 68 68 67 64 64 67 65 63 61 69 78 80 82 82 82 83
62 59 70 75 71 67 62 59 61 63 67 71 80 81 79 78 78 75 74 74 75 78 78 76 75 73 70 68 68 66 63 62 62 64 64 61 66 75 78 79 82 83 83
52 50 62 68 68 67 65 61 64 63 64 65 74 84 81 78 79 78 74 73 76 81 81 78 74 73 70 70 69 65 62 63 63 63 63 62 66 75 79 81 83 84 85
54 51 59 62 60 61 65 62 65 63 62 62 65 79 81 80 79 80 78 76 75 81 82 79 74 70 69 71 70 65 63 64 64 61 62 65 69 74 81 83 86 85 86
71 57 56 59 55 52 53 59 65 65 62 59 59 72 76 76 76 76 78 80 78 80 85 82 76 70 69 72 68 65 64 65 66 60 59 65 68 72 83 84 86 88 89
74 57 43 45 50 51 50 47 61 66 61 57 57 65 71 74 73 75 77 82 82 82 81 82 79 74 69 69 67 66 66 68 66 60 57 65 70 71 80 85 89 90 90
67 55 37 34 37 40 45 46 51 58 62 58 57 62 68 74 73 70 69 77 81 82 84 81 80 78 71 67 68 70 70 72 63 59 61 71 71 72 79 86 90 90 89
49 41 36 30 29 27 43 45 49 52 58 63 60 61 64 67 69 70 68 72 73 77 82 78 79 78 73 70 73 75 73 71 68 60 66 71 72 72 77 88 92 92 91
28 12 27 27 22 20 27 44 49 53 54 62 65 62 67 70 72 68 69 71 66 68 72 72 71 78 75 70 73 77 76 77 74 64 65 68 72 70 75 90 100 99 96
244 2 2 9 22 27 27 42 49 49 49 51 57 63 75 76 71 65 62 62 61 58 56 56 61 64 72 71 69 76 83 82 76 68 62 59 68 75 85 100 111 116 114
21 302 331 3 11 19 34 35 59 53 45 36 22 50 90 75 65 60 55 46 45 45 41 41 47 55 59 66 78 79 84 90 84 73 68 48 54 72 101 114 119 128 131
225 274 306 349 354 359 40 22 41 46 27 2 1 5 140 115 110 87 65 58 35 26 27 25 33 45 41 47 64 82 82 107 111 97 73 37 39 57 104 127 143 146 163
240 258 286 287 297 4 345 320 308 241 227 208 297 267 178 157 146 141 116 70 36 17 2 20 35 30 23 47 28 47 131 146 157 154 166 224 204 16 219 167 149 158 173
228 246 268 262 292 296 276 252 252 239 211 211 231 238 200 178 176 166 156 160 287 317 5 20 43 35 17 3 322 295 224 211 200 200 198 193 204 244 257 219 194 177 182
216 229 250 256 271 269 266 255 236 242 213 212 213 226 214 197 189 180 183 221 228 173 62 2 291 306 304 316 293 271 270 242 226 218 200 199 202 230 253 241 239 226 230
208 213 234 253 247 253 257 246 250 257 225 220 212 211 215 208 198 192 200 218 211 167 322 243 257 243 256 293 287 275 264 250 230 219 220 215 206 210 215 213 220 232 241
211 208 218 236 252 264 267 285 300 297 263 234 226 221 220 217 219 205 204 210 194 179 215 229 220 252 234 248 275 286 272 255 229 212 222 225 221 212 204 200 206 225 235
209 212 220 231 249 237 258 246 261 274 267 270 258 238 235 228 237 219 212 205 192 197 210 219 215 217 280 262 50 322 304 266 233 219 218 219 230 227 212 208 209 230 242
211 221 231 232 235 227 230 227 244 269 261 267 270 268 254 246 242 239 206 209 204 202 211 217 177 194 247 272 165 145 307 290 271 254 236 219 225 228 223 233 234 236 246
236 230 232 233 237 245 240 220 326 344 326 294 287 289 282 263 251 247 230 208 202 198 210 221 196 183 211 255 206 183 191 239 281 261 237 230 226 230 235 253 252 250 252
247 239 234 234 238 241 171 184 192 231 252 263 264 275 286 268 260 254 240 219 202 208 213 219 208 199 190 222 244 245 236 216 228 267 259 250 248 244 244 257 258 254 248
253 242 235 238 257 269 217 205 208 257 257 272 281 283 287 282 266 262 245 229 217 214 216 211 211 206 202 215 227 240 254 268 242 237 259 261 266 252 244 249 250 250 248
290 289 271 255 278 277 257 240 233 260 268 269 270 269 273 280 280 274 262 241 234 225 218 216 213 213 215 217 229 229 227 223 234 237 251 258 261 258 253 247 245 247 251
Height
1542 1543 1543 1543 1544 1544 1543 1543 1543 1543 1543 1543 1543 1543 1542 1542 1542 1542 1542 1542 1542 1541 1541 1541 1541 1540 1540 1540 1540 1540 1539 1539 1539 1538 1538 1538 1538 1537 1537 1537 1536 1536 1536
1542 1542 1543 1543 1543 1543 1543 1543 1543 1543 1543 1543 1543 1543 1543 1543 1543 1542 1542 1542 1542 1542 1542 1541 1541 1541 1541 1541 1541 1540 1540 1540 1540 1540 1539 1539 1539 1539 1539 1538 1538 1538 1538
1541 1542 1542 1543 1543 1543 1543 1543 1543 1543 1543 1543 1543 1543 1543 1543 1543 1543 1543 1543 1542 1542 1542 1542 1542 1542 1542 1542 1541 1541 1541 1541 1541 1541 1541 1541 1541 1540 1540 1540 1540 1540 1539
1541 1541 1542 1542 1543 1543 1543 1543 1543 1543 1543 1543 1543 1543 1543 1543 1543 1543 1543 1543 1543 1543 1542 1542 1542 1542 1542 1542 1542 1542 1542 1542 1542 1542 1542 1542 1542 1542 1542 1542 1541 1541 1541
1540 1541 1541 1542 1542 1542 1542 1542 1542 1542 1543 1543 1543 1543 1543 1543 1543 1543 1543 1543 1543 1543 1543 1543 1543 1543 1543 1542 1542 1542 1542 1542 1542 1542 1542 1543 1543 1543 1543 1543 1543 1543 1542
1539 1540 1540 1541 1541 1541 1542 1542 1542 1542 1542 1542 1542 1543 1543 1543 1543 1543 1543 1543 1543 1543 1543 1543 1543 1543 1543 1543 1543 1543 1543 1543 1543 1543 1543 1543 1543 1544 1543 1543 1544 1544 1544
1538 1539 1539 1540 1540 1540 1541 1541 1541 1541 1541 1542 1542 1542 1542 1542 1542 1542 1543 1543 1543 1543 1543 1543 1543 1543 1543 1543 1543 1543 1543 1543 1543 1543 1543 1544 1544 1544 1544 1544 1544 1544 1544
1537 1538 1539 1539 1539 1539 1539 1540 1540 1540 1541 1541 1541 1541 1541 1542 1542 1542 1542 1542 1542 1542 1542 1542 1542 1542 1543 1543 1543 1543 1543 1543 1543 1543 1544 1544 1544 1544 1544 1545 1545 1545 1545
1537 1537 1537 1538 1538 1538 1538 1539 1539 1539 1540 1540 1540 1540 1541 1541 1541 1541 1541 1542 1542 1542 1542 1542 1542 1542 1542 1542 1542 1542 1543 1543 1543 1543 1543 1544 1544 1544 1545 1545 1545 1545 1545
1536 1536 1536 1536 1537 1537 1537 1537 1538 1538 1538 1539 1539 1539 1540 1540 1540 1540 1541 1541 1541 1541 1541 1541 1541 1541 1542 1542 1542 1542 1542 1542 1543 1543 1543 1543 1544 1544 1544 1545 1545 1545 1545
1534 1534 1534 1535 1535 1535 1536 1536 1536 1537 1537 1537 1538 1538 1539 1539 1539 1539 1540 1540 1540 1540 1540 1541 1541 1541 1541 1541 1541 1541 1542 1542 1542 1542 1542 1543 1543 1544 1544 1544 1545 1545 1545
1531 1532 1532 1533 1533 1533 1534 1534 1534 1535 1535 1536 1536 1537 1537 1537 1538 1538 1538 1539 1539 1539 1540 1540 1540 1540 1540 1540 1541 1541 1541 1541 1541 1541 1542 1542 1543 1543 1543 1544 1544 1545 1545
1529 1529 1530 1530 1531 1531 1532 1532 1532 1533 1533 1534 1535 1535 1535 1536 1536 1536 1537 1537 1538 1538 1538 1538 1539 1539 1539 1540 1540 1540 1540 1540 1540 1541 1541 1541 1542 1542 1542 1543 1543 1544 1544
1527 1527 1527 1528 1529 1529 1529 1530 1530 1531 1531 1532 1532 1533 1533 1534 1534 1534 1535 1535 1536 1536 1537 1537 1537 1538 1538 1538 1539 1539 1539 1539 1539 1540 1540 1540 1541 1541 1541 1541 1542 1543 1543
1525 1525 1525 1525 1526 1526 1527 1527 1528 1528 1529 1529 1530 1530 1531 1531 1532 1532 1533 1533 1534 1534 1535 1535 1536 1536 1536 1537 1537 1537 1538 1538 1538 1539 1539 1539 1539 1540 1540 1540 1541 1541 1542
1522 1522 1522 1522 1523 1523 1524 1525 1525 1525 1526 1527 1527 1528 1528 1529 1529 1530 1531 1531 1532 1532 1533 1533 1534 1534 1535 1535 1535 1535 1536 1536 1536 1537 1537 1537 1538 1538 1538 1539 1539 1539 1540
1519 1519 1519 1520 1520 1520 1521 1522 1522 1523 1523 1524 1524 1525 1525 1526 1527 1527 1528 1529 1529 1530 1531 1531 1532 1532 1533 1533 1533 1533 1534 1534 1534 1535 1535 1535 1536 1536 1537 1537 1537 1538 1538
1516 1516 1517 1517 1517 1518 1518 1519 1519 1520 1520 1521 1521 1522 1522 1523 1524 1525 1525 1526 1527 1527 1528 1529 1529 1529 1530 1530 1530 1530 1531 1531 1532 1532 1533 1533 1534 1534 1534 1535 1535 1536 1536
1514 1514 1514 1514 1514 1515 1515 1516 1516 1516 1517 1517 1518 1518 1519 1520 1521 1521 1522 1523 1524 1524 1525 1526 1526 1527 1527 1527 1527 1527 1528 1528 1529 1529 1530 1530 1531 1532 1532 1532 1533 1533 1534
1511 1511 1511 1511 1511 1511 1512 1512 1513 1513 1513 1514 1514 1515 1516 1516 1517 1518 1518 1519 1520 1521 1522 1522 1523 1523 1524 1524 1524 1525 1525 1525 1525 1526 1527 1527 1528 1529 1529 1530 1530 1531 1531
1508 1508 1508 1508 1508 1508 1508 1508 1508 1509 1509 1510 1510 1511 1512 1512 1513 1514 1514 1515 1516 1517 1518 1519 1519 1520 1520 1521 1521 1521 1521 1522 1522 1522 1523 1524 1525 1526 1526 1527 1527 1528 1528
1505 1505 1505 1505 1505 1505 1505 1505 1505 1506 1505 1506 1507 1507 1508 1508 1509 1510 1510 1510 1511 1512 1514 1515 1515 1516 1517 1518 1518 1518 1518 1519 1518 1519 1519 1520 1521 1522 1523 1523 1524 1524 1525
1502 1502 1502 1502 1502 1502 1502 1502 1502 1502 1502 1503 1503 1504 1504 1504 1505 1506 1505 1506 1507 1508 1509 1510 1511 1512 1512 1514 1515 1516 1516 1514 1514 1514 1515 1516 1517 1518 1519 1519 1520 1521 1521
1499 1500 1500 1500 1500 1499 1499 1499 1499 1498 1498 1498 1499 1500 1500 1500 1501 1501 1501 1501 1502 1503 1504 1506 1506 1507 1509 1509 1511 1511 1513 1512 1512 1510 1511 1511 1513 1513 1514 1515 1516 1516 1517
1497 1497 1497 1497 1497 1497 1496 1496 1496 1495 1495 1495 1495 1496 1496 1496 1496 1496 1496 1496 1498 1499 1500 1501 1502 1503 1504 1505 1506 1507 1507 1508 1508 1507 1505 1506 1508 1508 1509 1510 1511 1512 1512
1495 1495 1494 1494 1494 1494 1493 1493 1492 1492 1492 1491 1491 1491 1491 1492 1491 1491 1491 1492 1493 1494 1495 1496 1497 1498 1499 1500 1501 1502 1503 1503 1503 1503 1502 1501 1502 1502 1504 1505 1505 1506 1507